Date String (YYYY-MM-DD hh:mm:ss) UTC,Instrument flags,Ambient pressure (hPa),Sample flow (lpm),Bypass flow (lpm),Sample temperature (°C),Ambient temperature (°C),ASC tube jacket temperature (°C),LED temperature (°C),Box temperature (°C),Sample RH (%),Span deviation,Mass concentration (μg/m³),Mass concentration (μg/m³),Mass concentration (μg/m³)
DateTimeUTC,F1_M11,P_M11,Q1_M11,Q2_M11,T1_M11,T2_M11,T3_M11,T4_M11,T5_M11,U1_M11,ZSPAN_M11,X0_M11,X2_M11,X1_M11
2022-02-14 13:00:00,,0828.4,4.98,0.00,22.4,21.6,00.0,31.4,24.2,09.0,0000.0,0011.22,0004.89,0004.34
2022-02-14 13:01:00,,0828.4,5.01,0.00,22.4,21.6,00.0,31.4,24.1,09.0,0000.0,0011.23,0004.90,0004.33
2022-02-14 13:02:00,,0828.3,4.99,0.00,22.4,21.6,00.0,31.4,24.1,09.0,0000.0,0010.70,0004.88,0004.32
2022-02-14 13:03:00,,0828.3,5.00,0.00,22.4,21.6,00.0,31.4,24.1,09.0,0000.0,0010.51,0004.88,0004.33
2022-02-14 13:04:00,,0828.3,5.00,0.00,22.4,21.6,00.0,31.4,24.1,09.0,0000.0,0010.49,0004.89,0004.34
2022-02-14 13:05:00,,0828.4,5.00,0.00,22.3,21.6,00.0,31.3,24.1,09.0,0000.0,0010.43,0004.88,0004.34
2022-02-14 13:06:00,,0828.3,5.00,0.00,22.3,21.6,00.0,31.3,24.1,09.0,0000.0,0010.47,0004.89,0004.34
2022-02-14 13:07:00,,0828.3,5.01,0.00,22.3,21.5,00.0,31.3,24.1,09.1,0000.0,0010.11,0004.87,0004.33
2022-02-14 13:08:00,,0828.3,4.99,0.00,22.3,21.5,00.0,31.3,24.1,09.0,0000.0,0009.09,0004.85,0004.32
2022-02-14 13:09:00,,0828.3,4.99,0.00,22.3,21.4,00.0,31.3,24.0,09.0,0000.0,0008.22,0004.86,0004.31
2022-02-14 13:10:00,,0828.3,5.01,0.00,22.3,21.4,00.0,31.3,24.0,09.1,0000.0,0008.17,0004.86,0004.31
2022-02-14 13:11:00,,0828.2,4.99,0.00,22.3,21.5,00.0,31.3,24.0,09.2,0000.0,0008.16,0004.87,0004.32
2022-02-14 13:12:00,,0828.3,5.00,0.00,22.3,21.4,00.0,31.3,24.0,09.2,0000.0,0008.25,0004.92,0004.34
2022-02-14 13:13:00,,0828.4,5.00,0.00,22.2,21.4,00.0,31.3,24.0,09.2,0000.0,0008.25,0004.93,0004.35
2022-02-14 13:14:00,,0828.3,5.00,0.00,22.2,21.4,00.0,31.2,23.9,09.2,0000.0,0008.13,0004.90,0004.35
2022-02-14 13:15:00,,0828.3,4.99,0.00,22.2,21.4,00.0,31.2,24.0,09.2,0000.0,0008.17,0004.93,0004.36
2022-02-14 13:16:00,,0828.3,5.02,0.00,22.2,21.4,00.0,31.2,24.0,09.3,0000.0,0008.15,0004.93,0004.37
2022-02-14 13:17:00,,0828.2,5.00,0.00,22.2,21.4,00.0,31.2,24.0,09.3,0000.0,0008.19,0004.95,0004.37
2022-02-14 13:18:00,,0828.1,4.99,0.00,22.2,21.3,00.0,31.2,24.0,09.2,0000.0,0008.60,0005.01,0004.37
2022-02-14 13:19:00,,0828.2,5.01,0.00,22.2,21.3,00.0,31.2,23.9,09.1,0000.0,0008.70,0005.02,0004.37
2022-02-14 13:20:00,,0828.3,5.00,0.00,22.2,21.3,00.0,31.2,23.9,09.1,0000.0,0009.14,0004.99,0004.36
2022-02-14 13:21:00,,0828.3,4.99,0.00,22.2,21.3,00.0,31.2,23.9,09.1,0000.0,0009.13,0004.98,0004.35
2022-02-14 13:22:00,,0828.1,5.01,0.00,22.2,21.3,00.0,31.2,23.9,09.0,0000.0,0009.39,0004.99,0004.32
2022-02-14 13:23:00,,0828.1,4.99,0.00,22.1,21.3,00.0,31.2,23.9,09.0,0000.0,0009.36,0004.94,0004.27
2022-02-14 13:24:00,,0828.2,4.99,0.00,22.2,21.4,00.0,31.2,23.9,09.0,0000.0,0009.37,0004.92,0004.24
2022-02-14 13:25:00,,0828.3,5.01,0.00,22.2,22.0,00.0,31.2,24.0,09.0,0000.0,0009.37,0004.91,0004.22
2022-02-14 13:26:00,,0828.2,5.00,0.00,22.3,22.7,00.0,31.2,24.3,09.0,0000.0,0009.54,0004.89,0004.20
2022-02-14 13:27:00,,0828.2,5.01,0.00,22.4,22.8,00.0,31.2,24.4,08.8,0000.0,0009.78,0004.87,0004.17
2022-02-14 13:28:00,,0828.3,5.01,0.00,22.5,22.6,00.0,31.3,24.4,08.7,0000.0,0009.94,0004.85,0004.12
2022-02-14 13:29:00,,0828.2,5.00,0.00,22.5,22.5,00.0,31.3,24.4,08.7,0000.0,0009.83,0004.77,0004.08
2022-02-14 13:30:00,,0828.2,4.99,0.00,22.5,22.3,00.0,31.3,24.4,08.5,0000.0,0010.51,0004.72,0004.02
2022-02-14 13:31:00,,0828.2,4.99,0.00,22.5,22.2,00.0,31.3,24.4,08.4,0000.0,0010.46,0004.67,0003.95
2022-02-14 13:32:00,,0828.2,5.00,0.00,22.5,22.1,00.0,31.3,24.4,08.4,0000.0,0010.62,0004.62,0003.87
2022-02-14 13:33:00,,0828.3,5.01,0.00,22.5,22.1,00.0,31.3,24.4,08.4,0000.0,0010.43,0004.55,0003.80
2022-02-14 13:34:00,,0828.1,4.99,0.00,22.5,22.0,00.0,31.3,24.4,08.5,0000.0,0011.18,0004.50,0003.77
2022-02-14 13:35:00,,0828.1,5.00,0.00,22.5,22.0,00.0,31.4,24.3,08.3,0000.0,0011.87,0004.45,0003.70
2022-02-14 13:36:00,,0828.1,5.00,0.00,22.5,21.9,00.0,31.4,24.3,08.3,0000.0,0012.56,0004.43,0003.64
2022-02-14 13:37:00,,0828.1,5.01,0.00,22.5,21.9,00.0,31.4,24.3,08.4,0000.0,0012.82,0004.41,0003.58
2022-02-14 13:38:00,,0828.1,5.00,0.00,22.5,21.8,00.0,31.4,24.3,08.4,0000.0,0012.87,0004.37,0003.53
2022-02-14 13:39:00,,0828.0,4.99,0.00,22.5,21.8,00.0,31.4,24.3,08.4,0000.0,0012.76,0004.32,0003.51
2022-02-14 13:40:00,,0828.1,5.02,0.00,22.5,21.8,00.0,31.4,24.3,08.5,0000.0,0012.90,0004.30,0003.50
2022-02-14 13:41:00,,0828.1,4.99,0.00,22.5,21.8,00.0,31.4,24.3,08.6,0000.0,0012.37,0004.28,0003.51
2022-02-14 13:42:00,,0828.0,4.99,0.00,22.5,21.7,00.0,31.4,24.2,08.5,0000.0,0012.10,0004.27,0003.53
2022-02-14 13:43:00,,0828.1,5.00,0.00,22.5,21.7,00.0,31.4,24.2,08.5,0000.0,0011.88,0004.30,0003.56
2022-02-14 13:44:00,,0828.0,5.01,0.00,22.4,21.7,00.0,31.4,24.2,08.6,0000.0,0012.34,0004.31,0003.59
2022-02-14 13:45:00,,0828.0,4.99,0.00,22.4,21.7,00.0,31.4,24.2,08.6,0000.0,0011.68,0004.32,0003.60
2022-02-14 13:46:00,,0828.2,5.01,0.00,22.4,21.7,00.0,31.4,24.2,08.7,0000.0,0010.80,0004.34,0003.64
2022-02-14 13:47:00,,0828.1,4.99,0.00,22.4,21.7,00.0,31.4,24.2,08.7,0000.0,0010.12,0004.34,0003.68
2022-02-14 13:48:00,,0828.1,4.99,0.00,22.4,21.7,00.0,31.4,24.2,08.7,0000.0,0010.59,0004.35,0003.69
2022-02-14 13:49:00,,0828.0,5.00,0.00,22.4,21.6,00.0,31.4,24.2,08.7,0000.0,0010.37,0004.38,0003.72
2022-02-14 13:50:00,,0827.9,4.99,0.00,22.4,21.6,00.0,31.4,24.1,08.7,0000.0,0010.59,0004.40,0003.74
2022-02-14 13:51:00,,0827.9,5.01,0.00,22.4,21.6,00.0,31.4,24.2,08.7,0000.0,0010.30,0004.41,0003.74
2022-02-14 13:52:00,,0827.9,5.00,0.00,22.4,21.6,00.0,31.4,24.2,08.7,0000.0,0009.80,0004.40,0003.74
2022-02-14 13:53:00,,0827.9,5.01,0.00,22.4,21.6,00.0,31.3,24.2,08.7,0000.0,0009.68,0004.41,0003.75
2022-02-14 13:54:00,,0827.9,4.99,0.00,22.4,21.6,00.0,31.3,24.1,08.7,0000.0,0009.57,0004.40,0003.75
2022-02-14 13:55:00,,0827.9,4.99,0.00,22.3,21.5,00.0,31.3,24.1,08.7,0000.0,0008.93,0004.38,0003.74
2022-02-14 13:56:00,,0827.9,5.02,0.00,22.3,21.5,00.0,31.3,24.0,08.7,0000.0,0008.79,0004.35,0003.73
2022-02-14 13:57:00,,0827.9,4.98,0.00,22.3,21.5,00.0,31.3,24.0,08.7,0000.0,0009.09,0004.36,0003.73
2022-02-14 13:58:00,,0827.9,5.00,0.00,22.3,21.5,00.0,31.3,23.9,08.7,0000.0,0010.18,0004.36,0003.74
2022-02-14 13:59:00,,0827.8,4.99,0.00,22.2,21.5,00.0,31.3,23.9,08.8,0000.0,0009.58,0004.33,0003.74
